Weather History for Llano, TX

Change the Weather History Date:

Wednesday, November 16, 2011

  Actual Average (KBMQ) Record (KBMQ)
Temperature  
Mean Temperature 62 °F -  
Max Temperature 75 °F 65 °F 79 °F (1999)
Min Temperature 48 °F 46 °F 30 °F (1997)
Degree Days  
Heating Degree Days 4    
Growing Degree Days 12 (Base 50)    
Moisture  
Dew Point 48 °F    
Average Humidity 64    
Maximum Humidity 94    
Minimum Humidity 34    
Precipitation  
Precipitation 0.00 in - - ()
Sea Level Pressure  
Sea Level Pressure 29.94 in    
Wind  
Wind Speed 4 mph (NW)    
Max Wind Speed 16 mph    
Max Gust Speed 26 mph    
Visibility 10 miles    
Events      
Averages and records for this station are not official NWS values.
T = Trace of Precipitation, MM = Missing Value Source: NWS Daily Summary

Daily Weather History Graph

Daily Weather History Graph

Search for Another Location

Airport:

Trip Planner

Search our weather history database for the weather conditions in past years. The results will help you decide how hot, cold, wet, or windy it might be!

Date:

Astronomy

Nov. 16, 2011 Rise Set
Actual Time 7:01 AM CST 5:36 PM CST
Civil Twilight 6:36 AM CST 6:02 PM CST
Nautical Twilight 6:07 AM CST 6:31 PM CST
Astronomical Twilight 5:38 AM CST 7:00 PM CST
Moon 10:48 PM CST (11/16) 11:40 AM CST (11/16)
Length of Visible Light 11h 26m
Length of Day
10h 34m
Waning Gibbous, 70% of the Moon is Illuminated
Nov 16
Waning Gibbous
Nov 18
Last Quarter
Nov 25
New
Dec 2
First Quarter
Dec 10
Full

Hourly Weather History & Observations

Time (CST) Temp. Dew Point Humidity Pressure Visibility Wind Dir Wind Speed Gust Speed Precip Events Conditions
12:15 AM 57.2 °F 55.4 °F 94% 29.81 in 10.0 mi Calm Calm - N/A   Clear
12:35 AM 59.0 °F 55.4 °F 88% 29.81 in 10.0 mi West 3.5 mph - N/A   Clear
12:55 AM 59.0 °F 55.4 °F 88% 29.81 in 10.0 mi West 6.9 mph - N/A   Clear
1:15 AM 60.8 °F 53.6 °F 77% 29.82 in 10.0 mi Calm Calm - N/A   Clear
1:35 AM 59.0 °F 53.6 °F 82% 29.82 in 10.0 mi Calm Calm - N/A   Clear
1:55 AM 55.4 °F 53.6 °F 94% 29.83 in 10.0 mi North 5.8 mph - N/A   Clear
2:15 AM 55.4 °F 51.8 °F 88% 29.83 in 10.0 mi North 4.6 mph - N/A   Clear
2:35 AM 55.4 °F 51.8 °F 88% 29.83 in 10.0 mi Calm Calm - N/A   Clear
2:55 AM 55.4 °F 50.0 °F 82% 29.83 in 10.0 mi West 4.6 mph - N/A   Clear
3:15 AM 53.6 °F 50.0 °F 88% 29.83 in 10.0 mi Calm Calm - N/A   Clear
3:55 AM 51.8 °F 48.2 °F 88% 29.84 in 10.0 mi Calm Calm - N/A   Clear
4:15 AM 51.8 °F 48.2 °F 88% 29.85 in 10.0 mi West 3.5 mph - N/A   Clear
4:35 AM 53.6 °F 48.2 °F 82% 29.85 in 10.0 mi NW 3.5 mph - N/A   Clear
4:55 AM 50.0 °F 46.4 °F 87% 29.85 in 10.0 mi Calm Calm - N/A   Clear
5:15 AM 48.2 °F 46.4 °F 93% 29.86 in 10.0 mi Calm Calm - N/A   Clear
5:35 AM 48.2 °F 46.4 °F 93% 29.87 in 10.0 mi NNW 3.5 mph - N/A   Clear
5:55 AM 48.2 °F 46.4 °F 93% 29.88 in 10.0 mi NW 3.5 mph - N/A   Clear
6:15 AM 50.0 °F 46.4 °F 87% 29.88 in 10.0 mi Calm Calm - N/A   Mostly Cloudy
6:35 AM 51.8 °F 46.4 °F 82% 29.90 in 10.0 mi West 4.6 mph - N/A   Overcast
6:55 AM 51.8 °F 46.4 °F 82% 29.91 in 10.0 mi West 5.8 mph - N/A   Mostly Cloudy
7:15 AM 51.8 °F 46.4 °F 82% 29.92 in 10.0 mi Calm Calm - N/A   Clear
7:35 AM 51.8 °F 46.4 °F 82% 29.93 in 10.0 mi Calm Calm - N/A   Clear
7:55 AM 53.6 °F 46.4 °F 77% 29.94 in 10.0 mi WNW 5.8 mph - N/A   Clear
8:15 AM 53.6 °F 46.4 °F 77% 29.95 in 10.0 mi WNW 5.8 mph - N/A   Clear
8:35 AM 55.4 °F 46.4 °F 72% 29.96 in 10.0 mi WNW 3.5 mph - N/A   Clear
8:55 AM 57.2 °F 46.4 °F 67% 29.96 in 10.0 mi Calm Calm - N/A   Clear
9:15 AM 57.2 °F 46.4 °F 67% 29.97 in 10.0 mi Calm Calm - N/A   Clear
9:35 AM 60.8 °F 46.4 °F 59% 29.97 in 10.0 mi WNW 4.6 mph - N/A   Clear
9:55 AM 62.6 °F 48.2 °F 59% 29.98 in 10.0 mi NNW 4.6 mph - N/A   Clear
10:15 AM 62.6 °F 48.2 °F 59% 29.98 in 10.0 mi WNW 4.6 mph - N/A   Clear
10:35 AM 64.4 °F 48.2 °F 56% 29.98 in 10.0 mi WNW 5.8 mph - N/A   Clear
10:55 AM 64.4 °F 48.2 °F 56% 29.98 in 10.0 mi West 5.8 mph - N/A   Clear
11:15 AM 66.2 °F 48.2 °F 52% 29.98 in 10.0 mi West 6.9 mph - N/A   Clear
11:35 AM 68.0 °F 48.2 °F 49% 29.98 in 10.0 mi NNW 4.6 mph - N/A   Clear
11:55 AM 69.8 °F 48.2 °F 46% 29.98 in 10.0 mi WNW 5.8 mph - N/A   Clear
12:15 PM 71.6 °F 48.2 °F 43% 29.98 in 10.0 mi West 4.6 mph - N/A   Clear
12:35 PM 71.6 °F 48.2 °F 43% 29.97 in 10.0 mi NW 9.2 mph - N/A   Clear
12:55 PM 71.6 °F 48.2 °F 43% 29.97 in 10.0 mi North 10.4 mph 17.3 mph N/A   Clear
1:15 PM 71.6 °F 48.2 °F 43% 29.97 in 10.0 mi North 10.4 mph 16.1 mph N/A   Clear
1:35 PM 71.6 °F 48.2 °F 43% 29.97 in 10.0 mi North 9.2 mph - N/A   Clear
1:55 PM 71.6 °F 48.2 °F 43% 29.96 in 10.0 mi North 8.1 mph - N/A   Clear
2:15 PM 73.4 °F 46.4 °F 38% 29.97 in 10.0 mi North 5.8 mph - N/A   Clear
2:35 PM 73.4 °F 46.4 °F 38% 29.97 in 10.0 mi NNW 10.4 mph - N/A   Clear
2:55 PM 73.4 °F 46.4 °F 38% 29.98 in 10.0 mi NNW 10.4 mph - N/A   Clear
3:15 PM 73.4 °F 44.6 °F 36% 29.98 in 10.0 mi North 9.2 mph - N/A   Clear
3:35 PM 75.2 °F 44.6 °F 34% 29.99 in 10.0 mi NNW 11.5 mph - N/A   Clear
3:55 PM 73.4 °F 44.6 °F 36% 30.00 in 10.0 mi North 12.7 mph 20.7 mph N/A   Clear
4:15 PM 73.4 °F 44.6 °F 36% 30.01 in 10.0 mi North 15.0 mph - N/A   Clear
4:35 PM 73.4 °F 44.6 °F 36% 30.03 in 10.0 mi North 12.7 mph - N/A   Clear
4:55 PM 71.6 °F 46.4 °F 41% 30.04 in 10.0 mi North 11.5 mph - N/A   Clear
5:15 PM 71.6 °F 44.6 °F 38% 30.06 in 10.0 mi North 9.2 mph - N/A   Clear
5:35 PM 68.0 °F 46.4 °F 46% 30.08 in 10.0 mi North 15.0 mph 21.9 mph N/A   Clear
5:55 PM 64.4 °F 46.4 °F 52% 30.10 in 10.0 mi North 16.1 mph 26.5 mph N/A   Clear
6:15 PM 62.6 °F 44.6 °F 52% 30.13 in 10.0 mi NNE 16.1 mph 23.0 mph N/A   Clear
6:35 PM 60.8 °F 44.6 °F 55% 30.15 in 10.0 mi NNE 10.4 mph 20.7 mph N/A   Clear
6:55 PM 60.8 °F 44.6 °F 55% 30.16 in 10.0 mi North 16.1 mph 25.3 mph N/A   Clear
7:35 PM 57.2 °F 42.8 °F 59% 30.20 in 10.0 mi North 15.0 mph 27.6 mph N/A   Clear
7:55 PM 55.4 °F 42.8 °F 63% 30.22 in 10.0 mi North 16.1 mph 23.0 mph N/A   Clear
8:15 PM 55.4 °F 41.0 °F 58% 30.24 in 10.0 mi North 11.5 mph 17.3 mph N/A   Clear
8:35 PM 53.6 °F 39.2 °F 58% 30.26 in 10.0 mi North 8.1 mph - N/A   Clear
8:55 PM 53.6 °F 39.2 °F 58% 30.28 in 10.0 mi NNE 5.8 mph - N/A   Clear
9:15 PM 53.6 °F 39.2 °F 58% 30.29 in 10.0 mi NNE 5.8 mph - N/A   Clear
9:35 PM 53.6 °F 39.2 °F 58% 30.30 in 10.0 mi North 5.8 mph - N/A   Clear
9:55 PM 51.8 °F 39.2 °F 62% 30.31 in 10.0 mi North 4.6 mph - N/A   Clear
10:15 PM 51.8 °F 39.2 °F 62% 30.32 in 10.0 mi North 6.9 mph - N/A   Clear
10:35 PM 51.8 °F 39.2 °F 62% 30.32 in 10.0 mi North 6.9 mph - N/A   Clear
10:55 PM 50.0 °F 39.2 °F 66% 30.33 in 10.0 mi North 3.5 mph - N/A   Clear
11:15 PM 50.0 °F 37.4 °F 62% 30.34 in 10.0 mi NW 3.5 mph - N/A   Clear
11:55 PM 48.2 °F 37.4 °F 66% 30.34 in 10.0 mi NW 4.6 mph - N/A   Clear